Location: Belfast
(54.5830°N, 5.9330°W)
Time: 14:45:33

ISS - Pass Details

Date: 16 March 2018
Orbit: 403 x 406 km, 51.6° (Epoch: 17 March)

Event Time Altitude Azimuth Distance (km) Brightness Sun altitude
Exits shadow 05:45:18 11° 248° (WSW) 1,411 -1.7 -8.2°
Maximum altitude 05:47:05 15° 214° (SW) 1,186 -1.9 -8.0°
Drops below altitude 10° 05:49:05 10° 176° (S) 1,459 -1.0 -7.7°
Sets 05:51:45 0° 153° (SSE) 2,314 0.3 -7.3°
